GALAXY 25 (G-25) (24812 NORAD) Tracking and Keplerian Element Data

This shows tracking and keplerian element data for the satellite.

Feedback or suggestion? Click here.




ElementValue
Catalog24812
NameGALAXY 25 (G-25)
Epoch Orbit10015
Epoch Day286.85605027
Epoch Year2024
RAAN74.7862
Inclination5.8379
Eccentricity0.000446
Argument of Perigee50.8821
Mean Anonmoly204.7104
Mean Motion0.99093368
Decay Rate-1.62E-06
L11 24812U 97026A 24286.85605027 -.00000162 00000+0 00000+0 0 9994
L22 24812 5.8379 74.7862 0004460 50.8821 204.7104 0.99093368100155



Live tracking and technical data element details for GALAXY 25 (G-25) (NORAD 24812). GALAXY 25 (G-25) can be tracked NOW for your location showing map with azimuth and elevation plus other details from your city location.







IsCatalogInMostPopularTable: catalog: 24812, numindb: 377
Update: records affected: 1



GetName: 24812 GALAXY 25 (G-25)

Hit Count: updated at: Thu, 15 May 2025 09:55:19 GMT